sat.trackr.live / text

‹ back to catalog

STARLINK-4283

NORAD 53016 · 2022-076AG

PAYLOAD ACTIVE UNKNOWN

§ Identity

Operator
Country
US
Launch date
2022-07-07
Launch site
AFETR
Launch vehicle
Mass (kg)
RCS (m²)

Purposes: comms

External: N2YO · Heavens-Above · Gunter

§ Orbital elements

Epoch: 2026-09-20T00:50:23.534304Z

Period
94.01 min
Inclination
53.1573°
Eccentricity
0.0001977
Mean motion
15.31720827 rev/d
Perigee alt
469.3 km
Apogee alt
472.0 km
Semi-major
6,848.8 km
B*
-2.1753e-4
RAAN
278.9866°
Arg perigee
51.4718°
Mean anomaly
308.6461°
Rev number
23,249

§ Raw data

STARLINK-42831 53016U 22076AG  26263.03499461 -.00007114  00000+0 -21753-3 0  99922 53016  53.1573 278.9866 0001977  51.4718 308.6461 15.31720827232491

JSON: /api/v1/satellites/53016 · /tle

For live sub-satellite position, see the globe view (requires WebGL).

§ Visibility from observer

Set your observer location to see the next 7 days of passes ≥ 10°. The values pass through the URL so the page stays shareable.

No JS? Fill the form by hand. The geolocation button needs JavaScript.